TimeAST,TemperatureF,Dew PointF,Humidity,Sea Level PressureIn,VisibilityMPH,Wind Direction,Wind SpeedMPH,Gust SpeedMPH,PrecipitationIn,Events,Conditions,WindDirDegrees,DateUTC
12:30 AM,87.8,55.4,33,29.65,-9999.0,NW,10.4,-,N/A,,Clear,310,2013-05-30 21:30:00
1:00 AM,87.8,55.4,33,29.65,-9999.0,NW,11.5,-,N/A,,Clear,310,2013-05-30 22:00:00
1:30 AM,87.8,57.2,35,29.65,-9999.0,NW,9.2,-,N/A,,Unknown,310,2013-05-30 22:30:00
2:00 AM,87.8,57.2,35,29.65,-9999.0,WNW,8.1,-,N/A,,Clear,300,2013-05-30 23:00:00
2:30 AM,87.8,57.2,35,29.62,-9999.0,WNW,6.9,-,N/A,,Clear,300,2013-05-30 23:30:00
3:00 AM,87,58,27,29.65,6,WNW,5.8,,,,,290,2013-05-31 00:00:00
3:00 AM,87.8,57.2,35,29.62,-9999.0,WNW,5.8,-,N/A,,Clear,290,2013-05-31 00:00:00
3:30 AM,86.0,59.0,40,29.62,-9999.0,WNW,5.8,-,N/A,,Clear,300,2013-05-31 00:30:00
4:00 AM,86.0,57.2,37,29.62,-9999.0,WNW,8.1,-,N/A,,Clear,300,2013-05-31 01:00:00
4:30 AM,86.0,59.0,40,29.65,-9999.0,WNW,8.1,-,N/A,,Clear,300,2013-05-31 01:30:00
5:00 AM,86.0,59.0,40,29.65,-9999.0,NW,6.9,-,N/A,,Clear,310,2013-05-31 02:00:00
5:30 AM,86.0,57.2,37,29.65,-9999.0,NW,10.4,-,N/A,,Clear,310,2013-05-31 02:30:00
6:00 AM,87.8,59.0,38,29.65,-9999.0,NW,9.2,-,N/A,,Clear,310,2013-05-31 03:00:00
6:30 AM,87.8,57.2,35,29.68,-9999.0,NW,10.4,-,N/A,,Clear,310,2013-05-31 03:30:00
7:00 AM,89.6,57.2,33,29.68,-9999.0,NW,10.4,-,N/A,,Clear,310,2013-05-31 04:00:00
7:30 AM,89.6,57.2,33,29.68,5.6,NW,12.7,-,N/A,,Unknown,310,2013-05-31 04:30:00
8:00 AM,93.2,55.4,28,29.68,5.6,NW,11.5,-,N/A,,Unknown,310,2013-05-31 05:00:00
8:30 AM,95.0,51.8,23,29.68,5.6,NW,12.7,-,N/A,,Unknown,320,2013-05-31 05:30:00
9:00 AM,96,51,13,29.68,6,NNW,12.7,,,,Widespread Dust,330,2013-05-31 06:00:00
9:00 AM,96.8,51.8,22,29.68,5.6,NNW,12.7,-,N/A,,Unknown,330,2013-05-31 06:00:00
9:30 AM,98.6,44.6,16,29.65,5.6,NW,16.1,-,N/A,,Unknown,320,2013-05-31 06:30:00
10:00 AM,100.4,42.8,14,29.65,-9999.0,NNW,17.3,-,N/A,,Clear,330,2013-05-31 07:00:00
10:30 AM,100.4,42.8,14,29.65,-9999.0,NW,16.1,-,N/A,,Clear,320,2013-05-31 07:30:00
11:00 AM,100.4,39.2,12,29.65,-9999.0,NNW,20.7,-,N/A,,Clear,330,2013-05-31 08:00:00
11:30 AM,102.2,41.0,12,29.65,-9999.0,NNW,18.4,-,N/A,,Clear,330,2013-05-31 08:30:00
12:00 PM,102.2,37.4,11,29.62,-9999.0,NNW,18.4,31.1,N/A,,Clear,330,2013-05-31 09:00:00
12:30 PM,102.2,39.2,11,29.62,-9999.0,NNW,17.3,28.8,N/A,,Clear,330,2013-05-31 09:30:00
1:00 PM,104.0,37.4,10,29.62,-9999.0,NNW,17.3,-,N/A,,Clear,330,2013-05-31 10:00:00
1:30 PM,104.0,37.4,10,29.59,-9999.0,NNW,19.6,-,N/A,,Clear,330,2013-05-31 10:30:00
2:00 PM,102.2,37.4,11,29.59,-9999.0,NW,18.4,-,N/A,,Clear,320,2013-05-31 11:00:00
2:30 PM,104.0,35.6,9,29.59,-9999.0,NW,17.3,-,N/A,,Clear,320,2013-05-31 11:30:00
3:00 PM,85,36,9,29.61,9,NW,16.1,,,,,310,2013-05-31 12:00:00
3:00 PM,102.2,35.6,10,29.59,-9999.0,NW,16.1,-,N/A,,Clear,310,2013-05-31 12:00:00
3:30 PM,102.2,35.6,10,29.59,-9999.0,NNW,20.7,32.2,N/A,,Clear,330,2013-05-31 12:30:00
4:00 PM,102.2,37.4,11,29.59,-9999.0,NNW,17.3,-,N/A,,Clear,330,2013-05-31 13:00:00
4:30 PM,100.4,37.4,11,29.59,-9999.0,NW,15.0,-,N/A,,Clear,320,2013-05-31 13:30:00
5:00 PM,100.4,35.6,11,29.59,-9999.0,NNW,18.4,-,N/A,,Clear,330,2013-05-31 14:00:00
5:30 PM,98.6,39.2,13,29.59,-9999.0,NNW,13.8,-,N/A,,Clear,330,2013-05-31 14:30:00
6:00 PM,98.6,39.2,13,29.59,-9999.0,NNW,15.0,-,N/A,,Clear,330,2013-05-31 15:00:00
6:30 PM,96.8,41.0,15,29.62,-9999.0,NW,9.2,-,N/A,,Clear,320,2013-05-31 15:30:00
7:00 PM,95.0,42.8,16,29.62,-9999.0,NNW,10.4,-,N/A,,Clear,330,2013-05-31 16:00:00
7:30 PM,95.0,42.8,16,29.62,-9999.0,NNW,10.4,-,N/A,,Clear,330,2013-05-31 16:30:00
8:00 PM,95.0,44.6,18,29.62,-9999.0,NW,9.2,-,N/A,,Clear,320,2013-05-31 17:00:00
8:30 PM,93.2,42.8,17,29.62,-9999.0,NW,5.8,-,N/A,,Clear,320,2013-05-31 17:30:00
9:00 PM,93,44,10,29.63,7,NW,6.9,,,,,320,2013-05-31 18:00:00
9:00 PM,93.2,44.6,19,29.62,-9999.0,NW,6.9,-,N/A,,Clear,320,2013-05-31 18:00:00
9:30 PM,93.2,42.8,17,29.62,-9999.0,NW,8.1,-,N/A,,Clear,320,2013-05-31 18:30:00
10:00 PM,93.2,42.8,17,29.59,-9999.0,NW,5.8,-,N/A,,Clear,310,2013-05-31 19:00:00
11:00 PM,93.2,41.0,16,29.59,-9999.0,NW,6.9,-,N/A,,Clear,320,2013-05-31 20:00:00
11:30 PM,91.4,41.0,17,29.59,-9999.0,NW,8.1,-,N/A,,Clear,310,2013-05-31 20:30:00